The Dalles, WA

10:45 PM PDT on June 23, 2017 (GMT -0700)
Columbia Gorge Regional-The Dalles

Weather History for KDLS - July, 2012

Change the Weather History Date:

Friday, July 6, 2012

  Actual Average Record
Temperature  
Mean Temperature 76 °F -  
Max Temperature 93 °F 83 °F 103 °F (1960)
Min Temperature 60 °F 57 °F 46 °F (1988)
Cooling Degree Days 12    
Growing Degree Days 26 (Base 50)    
Moisture  
Dew Point 51 °F    
Average Humidity 44    
Maximum Humidity 67    
Minimum Humidity 20    
Precipitation  
Precipitation 0.00 in - - ()
Sea Level Pressure  
Sea Level Pressure 29.96 in    
Wind  
Wind Speed 10 mph (NW)    
Max Wind Speed 22 mph    
Max Gust Speed 26 mph    
Visibility 10 miles    
Events      
Averages and records for this station are not official NWS values.
T = Trace of Precipitation, MM = Missing Value Source: NWS Daily Summary

Daily Weather History Graph

Daily Weather History Graph

Search for Another Location

Airport or City:

Trip Planner

Search our weather history database for the weather conditions in past years. The results will help you decide how hot, cold, wet, or windy it might be!

Date:

Astronomy

Jul. 06, 2012 Rise Set
Actual Time 5:23 AM PDT 8:55 PM PDT
Civil Twilight 4:45 AM PDT 9:33 PM PDT
Nautical Twilight 3:55 AM PDT 10:22 PM PDT
Astronomical Twilight 2:50 AM PDT 11:27 PM PDT
Moon 10:33 PM PDT (7/6) 9:00 AM PDT (7/6)
Length of Visible Light 16h 47m
Length of Day
15h 32m
Waning Gibbous, 88% of the Moon is Illuminated
Jul 6
Waning Gibbous
Jul 10
Last Quarter
Jul 18
New
Jul 26
First Quarter
Aug 1
Full

Hourly Weather History & Observations

Time (PDT) Temp. Heat Index Dew Point Humidity Pressure Visibility Wind Dir Wind Speed Gust Speed Precip Events Conditions
12:53 AM 71.1 °F - 46.0 °F 41% 29.95 in 10.0 mi NW 12.7 mph - N/A   Clear
1:53 AM 64.9 °F - 46.0 °F 50% 29.96 in 10.0 mi West 4.6 mph - N/A   Clear
2:53 AM 62.1 °F - 46.9 °F 58% 29.97 in 10.0 mi Calm Calm - N/A   Clear
3:53 AM 64.0 °F - 50.0 °F 60% 29.97 in 10.0 mi West 5.8 mph - N/A   Clear
4:53 AM 63.0 °F - 50.0 °F 63% 29.98 in 10.0 mi WNW 3.5 mph - N/A   Clear
5:53 AM 60.1 °F - 48.9 °F 67% 30.00 in 10.0 mi WNW 3.5 mph - N/A   Clear
6:53 AM 63.0 °F - 51.1 °F 65% 30.01 in 10.0 mi WNW 4.6 mph - N/A   Clear
8:53 AM 70.0 °F - 52.0 °F 53% 30.01 in 10.0 mi NNW 10.4 mph - N/A   Partly Cloudy
9:53 AM 73.0 °F - 52.0 °F 48% 30.00 in 10.0 mi NW 12.7 mph 19.6 mph N/A   Clear
10:53 AM 77.0 °F - 53.1 °F 43% 29.99 in 10.0 mi NNW 12.7 mph - N/A   Clear
11:53 AM 81.0 °F 80.4 °F 53.1 °F 38% 29.98 in 10.0 mi NNW 13.8 mph - N/A   Clear
12:53 PM 84.9 °F - 52.0 °F 32% 29.96 in 10.0 mi NNW 10.4 mph - N/A   Clear
1:53 PM 88.0 °F - 50.0 °F 27% 29.95 in 10.0 mi NNW 6.9 mph - N/A   Clear
2:53 PM 91.0 °F - 48.0 °F 23% 29.93 in 10.0 mi NNW 8.1 mph - N/A   Clear
3:53 PM 93.0 °F - 46.9 °F 20% 29.91 in 10.0 mi NNW 9.2 mph - N/A   Clear
4:53 PM 90.0 °F - 51.1 °F 26% 29.90 in 10.0 mi NNW 16.1 mph - N/A   Clear
5:53 PM 87.1 °F 85.7 °F 55.9 °F 35% 29.91 in 10.0 mi NNW 18.4 mph 23.0 mph N/A   Clear
6:53 PM 84.9 °F 83.9 °F 57.0 °F 38% 29.91 in 10.0 mi NW 17.3 mph 23.0 mph N/A   Clear
7:53 PM 82.0 °F 81.6 °F 55.9 °F 41% 29.93 in 10.0 mi WNW 15.0 mph 23.0 mph N/A   Clear
8:53 PM 79.0 °F - 54.0 °F 42% 29.94 in 10.0 mi NW 21.9 mph 26.5 mph N/A   Clear
10:53 PM 75.9 °F - 53.1 °F 45% 29.98 in 10.0 mi NW 16.1 mph - N/A   Clear
11:53 PM 73.9 °F - 54.0 °F 50% 29.99 in 10.0 mi NNW 16.1 mph - N/A   Clear